Location: Carrer del Canonge
(41.4901°N, 2.2931°E)
Time: 04:27:47
(UTC+00:00)

Cosmos 494 Rocket - Pass Details

Date: 25 January 2021
Orbit: 742 x 771 km, 74.1° (Epoch: 03 March)

Event Time Altitude Azimuth Distance (km) Brightness Sun altitude
Rises 18:55:46 0° 351° (N) 3,199 7.3 -22.0°
Reaches altitude 10° 18:58:34 10° 5° (N) 2,275 6.3 -22.5°
Enters shadow 18:59:20 13° 11° (NNE) 2,051 6.0 -22.6°
